GFSNIL_prec_precacc12_069.txt.gz
Total_Precipitation_Accumulation
0.13 0.07 0.09 0.04 0.05 0.04 0.04 0.05 0.03 0.03 0.06 0.05 0.03 0.02 0.02 0.02 0.01 0.00 0.00 0.00 0.00 0.00
0.13 0.10 0.09 0.07 0.05 0.04 0.04 0.03 0.03 0.06 0.08 0.09 0.07 0.08 0.06 0.04 0.06 0.04 0.01 0.00 0.00 0.00
0.13 0.13 0.13 0.14 0.09 0.08 0.06 0.06 0.12 0.17 0.23 0.19 0.13 0.09 0.09 0.09 0.06 0.01 0.01 0.00 0.00 0.00
0.09 0.14 0.21 0.22 0.15 0.11 0.13 0.19 0.25 0.31 0.21 0.16 0.17 0.16 0.13 0.07 0.03 0.04 0.02 0.00 0.00 0.00
0.12 0.15 0.17 0.16 0.12 0.13 0.18 0.19 0.21 0.35 0.43 0.38 0.27 0.21 0.16 0.13 0.08 0.03 0.00 0.00 0.00 0.00
0.17 0.14 0.13 0.10 0.09 0.13 0.33 0.48 0.54 0.48 0.39 0.35 0.31 0.19 0.08 0.03 0.00 0.00 0.00 0.00 0.00 0.00
0.15 0.13 0.15 0.20 0.34 0.46 0.41 0.28 0.26 0.27 0.25 0.15 0.05 0.01 0.01 0.00 0.00 0.00 0.00 0.00 0.00 0.00
0.11 0.16 0.19 0.16 0.11 0.10 0.14 0.14 0.07 0.03 0.03 0.02 0.00 0.00 0.00 0.00 0.00 0.00 0.00 0.00 0.00 0.00
0.09 0.06 0.06 0.06 0.06 0.04 0.01 0.01 0.03 0.03 0.01 0.00 0.00 0.00 0.00 0.00 0.00 0.00 0.00 0.00 0.00 0.00
0.02 0.01 0.01 0.02 0.01 0.02 0.06 0.09 0.05 0.01 0.00 0.00 0.00 0.00 0.00 0.00 0.00 0.00 0.00 0.00 0.00 0.00
0.00 0.00 0.01 0.02 0.06 0.10 0.06 0.01 0.00 0.00 0.00 0.00 0.00 0.00 0.00 0.00 0.00 0.00 0.00 0.00 0.00 0.00
0.00 0.01 0.04 0.08 0.05 0.01 0.00 0.00 0.00 0.00 0.00 0.00 0.00 0.00 0.00 0.00 0.00 0.00 0.00 0.00 0.00 0.00
0.03 0.06 0.04 0.00 0.00 0.00 0.00 0.00 0.00 0.00 0.00 0.00 0.00 0.00 0.00 0.00 0.00 0.00 0.00 0.00 0.00 0.00
0.01 0.00 0.00 0.00 0.00 0.00 0.00 0.00 0.00 0.00 0.00 0.00 0.00 0.00 0.00 0.00 0.00 0.00 0.00 0.00 0.00 0.00

GFSNIL_prec_precacc12_072.txt.gz
Total_Precipitation_Accumulation
0.10 0.06 0.12 0.05 0.07 0.06 0.05 0.05 0.03 0.02 0.03 0.03 0.04 0.05 0.06 0.05 0.02 0.00 0.01 0.01 0.01 0.01
0.08 0.09 0.13 0.09 0.07 0.08 0.03 0.03 0.03 0.03 0.04 0.07 0.14 0.18 0.16 0.13 0.14 0.10 0.06 0.04 0.02 0.01
0.11 0.13 0.13 0.18 0.24 0.15 0.09 0.07 0.07 0.14 0.29 0.35 0.35 0.31 0.24 0.15 0.12 0.09 0.09 0.06 0.04 0.01
0.10 0.17 0.23 0.26 0.21 0.12 0.17 0.20 0.21 0.32 0.30 0.28 0.29 0.25 0.22 0.24 0.25 0.22 0.13 0.06 0.03 0.00
0.17 0.23 0.25 0.23 0.17 0.16 0.17 0.13 0.21 0.35 0.44 0.41 0.35 0.35 0.38 0.32 0.18 0.09 0.03 0.00 0.00 0.00
0.36 0.20 0.18 0.16 0.10 0.14 0.33 0.48 0.54 0.49 0.40 0.40 0.37 0.23 0.10 0.03 0.01 0.00 0.00 0.00 0.00 0.00
0.20 0.17 0.14 0.23 0.38 0.49 0.42 0.27 0.25 0.27 0.25 0.15 0.05 0.01 0.01 0.00 0.00 0.00 0.00 0.00 0.00 0.00
0.16 0.16 0.20 0.23 0.12 0.07 0.12 0.13 0.06 0.03 0.03 0.02 0.00 0.00 0.00 0.00 0.00 0.00 0.00 0.00 0.00 0.00
0.11 0.10 0.10 0.06 0.04 0.03 0.01 0.01 0.02 0.02 0.01 0.00 0.00 0.00 0.00 0.00 0.00 0.00 0.00 0.00 0.00 0.00
0.05 0.04 0.03 0.02 0.01 0.01 0.03 0.07 0.04 0.01 0.00 0.00 0.00 0.00 0.00 0.00 0.00 0.00 0.00 0.00 0.00 0.00
0.01 0.01 0.01 0.01 0.04 0.06 0.04 0.01 0.00 0.00 0.00 0.00 0.00 0.00 0.00 0.00 0.00 0.00 0.00 0.00 0.00 0.00
0.00 0.01 0.02 0.03 0.02 0.00 0.00 0.00 0.00 0.00 0.00 0.00 0.00 0.00 0.00 0.00 0.00 0.00 0.00 0.00 0.00 0.00
0.01 0.02 0.02 0.00 0.00 0.00 0.00 0.00 0.00 0.00 0.00 0.00 0.00 0.00 0.00 0.00 0.00 0.00 0.00 0.00 0.00 0.00
0.00 0.00 0.00 0.00 0.00 0.00 0.00 0.00 0.00 0.00 0.00 0.00 0.00 0.00 0.00 0.00 0.00 0.00 0.00 0.00 0.00 0.00

GFSNIL_prec_precacc12_075.txt.gz
Total_Precipitation_Accumulation
0.02 0.03 0.11 0.05 0.10 0.09 0.09 0.12 0.16 0.07 0.03 0.03 0.03 0.04 0.08 0.11 0.14 0.19 0.22 0.21 0.15 0.09
0.07 0.03 0.06 0.05 0.09 0.23 0.18 0.10 0.10 0.07 0.06 0.07 0.12 0.18 0.21 0.28 0.37 0.33 0.27 0.19 0.13 0.12
0.08 0.11 0.08 0.12 0.32 0.46 0.21 0.08 0.10 0.15 0.23 0.28 0.33 0.31 0.28 0.24 0.17 0.13 0.15 0.15 0.15 0.13
0.04 0.08 0.15 0.20 0.46 0.31 0.26 0.25 0.19 0.27 0.30 0.28 0.29 0.25 0.22 0.25 0.30 0.30 0.22 0.14 0.07 0.02
0.23 0.38 0.53 0.49 0.44 0.33 0.21 0.16 0.24 0.40 0.45 0.41 0.35 0.35 0.38 0.32 0.19 0.09 0.03 0.00 0.00 0.00
0.53 0.42 0.53 0.41 0.25 0.19 0.37 0.55 0.58 0.47 0.36 0.35 0.36 0.23 0.10 0.03 0.01 0.00 0.00 0.00 0.00 0.00
0.22 0.36 0.20 0.14 0.28 0.44 0.43 0.28 0.17 0.14 0.17 0.13 0.05 0.01 0.01 0.00 0.00 0.00 0.00 0.00 0.00 0.00
0.18 0.24 0.15 0.12 0.09 0.05 0.05 0.04 0.03 0.02 0.02 0.02 0.00 0.00 0.00 0.00 0.00 0.00 0.00 0.00 0.00 0.00
0.15 0.13 0.10 0.06 0.04 0.03 0.02 0.01 0.01 0.01 0.00 0.00 0.00 0.00 0.00 0.00 0.00 0.00 0.00 0.00 0.00 0.00
0.08 0.07 0.06 0.03 0.01 0.01 0.01 0.02 0.01 0.00 0.00 0.00 0.00 0.00 0.00 0.00 0.00 0.00 0.00 0.00 0.00 0.00
0.02 0.00 0.00 0.00 0.01 0.00 0.00 0.00 0.00 0.00 0.00 0.00 0.00 0.00 0.00 0.00 0.00 0.00 0.00 0.00 0.00 0.00
0.00 0.00 0.00 0.00 0.00 0.00 0.00 0.00 0.00 0.00 0.00 0.00 0.00 0.00 0.00 0.00 0.00 0.00 0.00 0.00 0.00 0.00
0.00 0.00 0.00 0.00 0.00 0.00 0.00 0.00 0.00 0.00 0.00 0.00 0.00 0.00 0.00 0.00 0.00 0.00 0.00 0.00 0.00 0.00
0.00 0.00 0.00 0.00 0.00 0.00 0.00 0.00 0.00 0.00 0.00 0.00 0.00 0.00 0.00 0.00 0.00 0.00 0.00 0.00 0.00 0.00

GFSNIL_prec_precacc12_078.txt.gz
Total_Precipitation_Accumulation
0.00 0.02 0.08 0.02 0.07 0.06 0.06 0.12 0.27 0.11 0.07 0.10 0.05 0.05 0.07 0.11 0.14 0.22 0.35 0.41 0.35 0.23
0.05 0.02 0.07 0.07 0.05 0.20 0.17 0.10 0.15 0.20 0.14 0.14 0.12 0.13 0.18 0.29 0.41 0.41 0.34 0.26 0.20 0.17
0.04 0.08 0.07 0.15 0.31 0.42 0.21 0.17 0.26 0.38 0.41 0.38 0.33 0.31 0.28 0.24 0.19 0.15 0.16 0.16 0.16 0.14
0.01 0.11 0.25 0.28 0.63 0.44 0.42 0.60 0.70 0.59 0.40 0.33 0.30 0.24 0.21 0.24 0.29 0.30 0.22 0.14 0.08 0.03
0.21 0.44 0.75 0.75 0.89 1.11 1.29 0.98 0.63 0.42 0.41 0.40 0.33 0.29 0.31 0.30 0.19 0.09 0.03 0.01 0.00 0.00
0.59 0.57 0.75 0.63 0.54 0.51 0.43 0.37 0.37 0.37 0.30 0.21 0.16 0.10 0.07 0.03 0.01 0.01 0.00 0.00 0.00 0.00
0.28 0.44 0.36 0.39 0.40 0.36 0.29 0.20 0.11 0.07 0.04 0.02 0.02 0.01 0.01 0.00 0.00 0.00 0.00 0.00 0.00 0.00
0.21 0.27 0.23 0.16 0.14 0.09 0.07 0.05 0.04 0.04 0.02 0.01 0.00 0.00 0.00 0.00 0.00 0.00 0.00 0.00 0.00 0.00
0.16 0.15 0.12 0.09 0.06 0.05 0.05 0.02 0.02 0.01 0.00 0.00 0.00 0.01 0.00 0.00 0.00 0.00 0.00 0.00 0.00 0.00
0.09 0.08 0.07 0.04 0.03 0.02 0.02 0.01 0.00 0.00 0.00 0.00 0.00 0.01 0.00 0.00 0.00 0.00 0.00 0.00 0.00 0.00
0.02 0.01 0.00 0.00 0.00 0.00 0.00 0.00 0.00 0.00 0.00 0.00 0.00 0.00 0.00 0.00 0.00 0.00 0.00 0.00 0.00 0.00
0.00 0.00 0.00 0.00 0.00 0.00 0.00 0.00 0.00 0.00 0.00 0.00 0.00 0.00 0.00 0.00 0.00 0.00 0.00 0.00 0.00 0.00
0.00 0.00 0.00 0.00 0.00 0.00 0.00 0.00 0.00 0.00 0.00 0.00 0.00 0.00 0.00 0.00 0.00 0.00 0.00 0.00 0.00 0.00
0.00 0.00 0.00 0.00 0.00 0.00 0.00 0.00 0.00 0.00 0.00 0.00 0.00 0.00 0.00 0.00 0.00 0.00 0.00 0.00 0.00 0.00

GFSNIL_prec_precacc12_081.txt.gz
Total_Precipitation_Accumulation
0.00 0.02 0.04 0.02 0.06 0.05 0.05 0.08 0.24 0.09 0.06 0.12 0.12 0.18 0.18 0.15 0.15 0.22 0.35 0.43 0.38 0.28
0.05 0.02 0.06 0.07 0.05 0.19 0.17 0.09 0.12 0.17 0.18 0.25 0.27 0.29 0.29 0.35 0.40 0.38 0.34 0.27 0.23 0.19
0.04 0.08 0.07 0.13 0.30 0.43 0.29 0.19 0.23 0.33 0.41 0.50 0.57 0.54 0.40 0.31 0.23 0.14 0.16 0.17 0.19 0.15
0.02 0.11 0.24 0.27 0.64 0.51 0.45 0.59 0.80 0.93 0.95 0.83 0.63 0.50 0.48 0.36 0.29 0.26 0.20 0.14 0.08 0.03
0.28 0.50 0.78 0.76 0.95 1.19 1.37 1.24 1.18 0.85 0.53 0.38 0.28 0.27 0.31 0.23 0.12 0.06 0.03 0.01 0.01 0.01
0.67 0.58 0.77 0.72 0.67 0.72 0.57 0.39 0.26 0.15 0.09 0.09 0.11 0.09 0.05 0.01 0.01 0.01 0.01 0.01 0.01 0.00
0.27 0.47 0.39 0.43 0.46 0.52 0.49 0.33 0.18 0.11 0.05 0.03 0.04 0.05 0.02 0.00 0.00 0.00 0.00 0.00 0.00 0.00
0.20 0.27 0.25 0.21 0.21 0.17 0.15 0.10 0.13 0.09 0.05 0.03 0.04 0.03 0.02 0.00 0.00 0.01 0.01 0.00 0.00 0.00
0.16 0.17 0.15 0.14 0.10 0.11 0.10 0.05 0.04 0.03 0.03 0.02 0.02 0.06 0.04 0.02 0.00 0.01 0.00 0.00 0.00 0.00
0.10 0.10 0.09 0.06 0.05 0.05 0.04 0.03 0.04 0.03 0.03 0.04 0.04 0.08 0.04 0.02 0.00 0.00 0.00 0.00 0.00 0.00
0.02 0.01 0.01 0.01 0.01 0.02 0.02 0.01 0.01 0.03 0.03 0.03 0.03 0.03 0.01 0.00 0.00 0.00 0.00 0.00 0.00 0.00
0.01 0.00 0.01 0.01 0.01 0.01 0.01 0.02 0.01 0.01 0.01 0.01 0.01 0.01 0.00 0.00 0.00 0.00 0.00 0.00 0.00 0.00
0.00 0.01 0.02 0.02 0.02 0.01 0.01 0.01 0.00 0.00 0.00 0.00 0.00 0.00 0.00 0.00 0.00 0.00 0.00 0.00 0.00 0.00
0.01 0.02 0.02 0.01 0.01 0.00 0.00 0.00 0.00 0.00 0.00 0.00 0.00 0.00 0.00 0.00 0.00 0.00 0.00 0.00 0.00 0.00

GFSNIL_prec_precacc12_084.txt.gz
Total_Precipitation_Accumulation
0.00 0.02 0.01 0.00 0.03 0.03 0.03 0.08 0.24 0.08 0.05 0.11 0.09 0.15 0.18 0.19 0.22 0.32 0.44 0.48 0.40 0.30
0.05 0.01 0.02 0.05 0.03 0.15 0.17 0.09 0.12 0.17 0.16 0.21 0.18 0.18 0.25 0.34 0.45 0.51 0.48 0.33 0.24 0.20
0.04 0.07 0.06 0.09 0.14 0.37 0.27 0.21 0.25 0.33 0.34 0.32 0.36 0.36 0.43 0.59 0.64 0.53 0.39 0.34 0.21 0.16
0.01 0.08 0.20 0.22 0.57 0.48 0.41 0.59 0.85 0.97 0.94 0.80 0.61 0.54 0.57 0.49 0.42 0.32 0.20 0.13 0.07 0.04
0.23 0.42 0.70 0.68 0.89 1.11 1.34 1.28 1.26 0.97 0.70 0.52 0.30 0.16 0.11 0.09 0.09 0.06 0.05 0.04 0.03 0.03
0.50 0.53 0.74 0.68 0.67 0.74 0.59 0.47 0.40 0.38 0.37 0.26 0.09 0.06 0.04 0.04 0.08 0.10 0.08 0.06 0.03 0.02
0.21 0.42 0.36 0.43 0.45 0.54 0.54 0.41 0.31 0.25 0.21 0.16 0.12 0.08 0.04 0.03 0.05 0.04 0.03 0.02 0.02 0.02
0.11 0.17 0.18 0.16 0.19 0.19 0.17 0.15 0.24 0.19 0.14 0.09 0.06 0.06 0.05 0.04 0.05 0.04 0.04 0.04 0.02 0.01
0.07 0.09 0.11 0.13 0.12 0.14 0.14 0.09 0.09 0.08 0.07 0.06 0.05 0.12 0.08 0.05 0.03 0.04 0.03 0.02 0.02 0.02
0.06 0.06 0.08 0.06 0.06 0.06 0.07 0.05 0.05 0.05 0.05 0.06 0.07 0.16 0.08 0.07 0.04 0.03 0.03 0.02 0.01 0.00
0.02 0.02 0.01 0.02 0.03 0.02 0.02 0.02 0.03 0.05 0.07 0.07 0.11 0.12 0.05 0.04 0.01 0.01 0.01 0.01 0.01 0.00
0.01 0.01 0.01 0.02 0.02 0.02 0.02 0.04 0.04 0.05 0.06 0.06 0.07 0.08 0.04 0.02 0.00 0.01 0.01 0.01 0.00 0.00
0.01 0.01 0.02 0.03 0.03 0.04 0.05 0.05 0.04 0.04 0.03 0.04 0.02 0.04 0.02 0.01 0.00 0.00 0.00 0.00 0.00 0.00
0.02 0.02 0.03 0.03 0.04 0.04 0.04 0.03 0.03 0.02 0.01 0.01 0.01 0.01 0.01 0.00 0.00 0.00 0.00 0.00 0.00 0.00

GFSNIL_prec_precacc12_087.txt.gz
Total_Precipitation_Accumulation
0.00 0.00 0.00 0.00 0.00 0.00 0.00 0.00 0.12 0.03 0.05 0.11 0.09 0.14 0.15 0.13 0.12 0.16 0.26 0.33 0.33 0.31
0.01 0.00 0.02 0.05 0.00 0.00 0.02 0.01 0.05 0.13 0.15 0.20 0.17 0.18 0.20 0.19 0.22 0.29 0.34 0.36 0.45 0.49
0.02 0.03 0.05 0.09 0.05 0.06 0.15 0.20 0.22 0.31 0.32 0.32 0.36 0.36 0.41 0.53 0.61 0.56 0.48 0.45 0.44 0.34
0.01 0.07 0.16 0.17 0.28 0.29 0.30 0.49 0.79 0.94 0.93 0.81 0.70 0.72 0.80 0.69 0.51 0.33 0.22 0.16 0.12 0.10
0.09 0.17 0.31 0.35 0.58 0.91 1.23 1.18 1.19 0.94 0.72 0.59 0.50 0.43 0.39 0.24 0.11 0.08 0.06 0.07 0.05 0.05
0.24 0.26 0.33 0.37 0.46 0.64 0.50 0.37 0.38 0.42 0.42 0.36 0.35 0.42 0.39 0.13 0.09 0.10 0.09 0.09 0.08 0.06
0.12 0.18 0.26 0.38 0.35 0.43 0.50 0.40 0.33 0.28 0.24 0.21 0.17 0.14 0.11 0.09 0.08 0.06 0.03 0.04 0.03 0.03
0.04 0.05 0.14 0.13 0.17 0.20 0.19 0.18 0.26 0.21 0.17 0.13 0.10 0.10 0.08 0.06 0.07 0.07 0.05 0.05 0.06 0.09
0.03 0.05 0.07 0.09 0.09 0.12 0.15 0.11 0.11 0.11 0.10 0.08 0.07 0.19 0.13 0.09 0.04 0.06 0.07 0.10 0.14 0.16
0.02 0.03 0.04 0.05 0.06 0.07 0.07 0.05 0.06 0.06 0.06 0.07 0.09 0.21 0.12 0.11 0.07 0.09 0.12 0.12 0.08 0.05
0.01 0.01 0.01 0.02 0.03 0.03 0.02 0.02 0.03 0.06 0.08 0.09 0.14 0.18 0.09 0.10 0.04 0.06 0.07 0.05 0.03 0.02
0.02 0.01 0.02 0.02 0.03 0.02 0.03 0.05 0.05 0.06 0.07 0.07 0.10 0.15 0.09 0.07 0.02 0.04 0.05 0.03 0.02 0.02
0.02 0.02 0.03 0.03 0.04 0.05 0.06 0.08 0.08 0.09 0.09 0.12 0.05 0.11 0.05 0.02 0.00 0.00 0.01 0.01 0.01 0.01
0.02 0.02 0.03 0.04 0.05 0.06 0.06 0.07 0.06 0.05 0.05 0.04 0.03 0.04 0.03 0.01 0.00 0.00 0.00 0.00 0.00 0.00

GFSNIL_prec_precacc12_093.txt.gz
Total_Precipitation_Accumulation
0.00 0.00 0.00 0.00 0.00 0.00 0.00 0.00 0.00 0.00 0.00 0.01 0.00 0.02 0.12 0.14 0.14 0.15 0.16 0.13 0.11 0.15
0.00 0.00 0.00 0.00 0.00 0.00 0.00 0.00 0.00 0.00 0.00 0.00 0.00 0.02 0.08 0.10 0.14 0.21 0.29 0.31 0.38 0.47
0.00 0.00 0.00 0.00 0.00 0.00 0.01 0.03 0.03 0.03 0.02 0.02 0.04 0.06 0.20 0.37 0.51 0.56 0.49 0.46 0.43 0.36
0.00 0.00 0.00 0.00 0.00 0.00 0.01 0.04 0.06 0.07 0.10 0.12 0.20 0.32 0.42 0.56 0.58 0.47 0.33 0.24 0.20 0.18
0.00 0.00 0.00 0.00 0.00 0.00 0.02 0.06 0.10 0.15 0.22 0.24 0.30 0.32 0.37 0.41 0.42 0.38 0.24 0.14 0.11 0.10
0.03 0.02 0.03 0.03 0.02 0.04 0.04 0.09 0.18 0.29 0.35 0.31 0.32 0.39 0.43 0.35 0.29 0.20 0.14 0.11 0.10 0.08
0.02 0.02 0.02 0.05 0.05 0.07 0.10 0.12 0.16 0.18 0.20 0.18 0.14 0.09 0.10 0.11 0.10 0.09 0.08 0.10 0.10 0.10
0.01 0.00 0.02 0.04 0.04 0.06 0.07 0.10 0.16 0.14 0.14 0.12 0.07 0.10 0.11 0.12 0.11 0.10 0.11 0.14 0.15 0.19
0.00 0.00 0.01 0.02 0.04 0.05 0.07 0.08 0.09 0.09 0.09 0.08 0.07 0.18 0.16 0.13 0.08 0.14 0.18 0.20 0.22 0.28
0.00 0.00 0.01 0.02 0.03 0.03 0.04 0.04 0.04 0.05 0.05 0.06 0.07 0.25 0.14 0.16 0.08 0.12 0.16 0.17 0.16 0.16
0.01 0.00 0.01 0.02 0.03 0.02 0.02 0.03 0.04 0.06 0.07 0.09 0.19 0.24 0.12 0.13 0.06 0.09 0.15 0.16 0.16 0.16
0.01 0.01 0.01 0.02 0.03 0.02 0.04 0.06 0.05 0.06 0.09 0.09 0.13 0.19 0.11 0.08 0.02 0.06 0.10 0.10 0.10 0.10
0.02 0.01 0.01 0.02 0.03 0.03 0.05 0.08 0.08 0.10 0.10 0.16 0.08 0.19 0.09 0.06 0.01 0.03 0.05 0.05 0.06 0.09
0.01 0.01 0.02 0.03 0.04 0.06 0.06 0.07 0.06 0.05 0.05 0.05 0.06 0.09 0.06 0.03 0.01 0.01 0.01 0.01 0.01 0.01

GFSNIL_prec_precacc12_096.txt.gz
Total_Precipitation_Accumulation
0.00 0.00 0.00 0.00 0.00 0.00 0.00 0.00 0.00 0.00 0.01 0.03 0.05 0.07 0.09 0.07 0.06 0.07 0.08 0.10 0.11 0.15
0.00 0.00 0.00 0.00 0.00 0.00 0.00 0.00 0.00 0.00 0.00 0.01 0.02 0.03 0.06 0.06 0.06 0.07 0.16 0.23 0.38 0.50
0.00 0.00 0.00 0.00 0.00 0.00 0.00 0.00 0.00 0.00 0.00 0.01 0.02 0.03 0.05 0.06 0.06 0.11 0.17 0.24 0.38 0.34
0.00 0.00 0.00 0.00 0.00 0.00 0.00 0.00 0.00 0.01 0.01 0.03 0.11 0.21 0.25 0.27 0.25 0.24 0.22 0.19 0.18 0.16
0.00 0.00 0.00 0.00 0.00 0.00 0.00 0.00 0.02 0.03 0.04 0.07 0.20 0.29 0.35 0.36 0.34 0.32 0.20 0.11 0.10 0.09
0.00 0.00 0.00 0.00 0.00 0.00 0.00 0.01 0.03 0.05 0.06 0.10 0.27 0.39 0.43 0.32 0.21 0.12 0.07 0.07 0.09 0.08
0.01 0.01 0.00 0.01 0.01 0.02 0.03 0.04 0.03 0.03 0.04 0.05 0.06 0.07 0.08 0.08 0.06 0.06 0.08 0.12 0.12 0.11
0.01 0.00 0.01 0.01 0.02 0.03 0.04 0.05 0.05 0.04 0.06 0.07 0.05 0.06 0.08 0.09 0.07 0.08 0.12 0.14 0.18 0.26
0.00 0.00 0.00 0.01 0.01 0.02 0.03 0.04 0.04 0.05 0.05 0.05 0.05 0.13 0.12 0.11 0.05 0.13 0.21 0.27 0.30 0.35
0.00 0.00 0.00 0.01 0.01 0.01 0.02 0.02 0.02 0.02 0.03 0.04 0.05 0.18 0.10 0.12 0.06 0.17 0.22 0.22 0.20 0.19
0.00 0.00 0.00 0.01 0.02 0.02 0.02 0.02 0.02 0.03 0.04 0.05 0.13 0.19 0.09 0.12 0.06 0.13 0.18 0.19 0.18 0.18
0.00 0.00 0.00 0.02 0.02 0.02 0.02 0.03 0.02 0.03 0.05 0.06 0.09 0.18 0.09 0.07 0.02 0.07 0.10 0.10 0.11 0.12
0.00 0.00 0.00 0.01 0.01 0.01 0.01 0.04 0.05 0.08 0.09 0.16 0.08 0.20 0.09 0.06 0.01 0.03 0.05 0.05 0.08 0.12
0.00 0.00 0.00 0.01 0.01 0.02 0.04 0.06 0.06 0.06 0.06 0.06 0.07 0.09 0.07 0.03 0.01 0.01 0.01 0.01 0.01 0.01

GFSNIL_prec_precacc12_099.txt.gz
Total_Precipitation_Accumulation
0.00 0.00 0.00 0.00 0.00 0.00 0.01 0.01 0.00 0.00 0.01 0.03 0.05 0.07 0.11 0.08 0.06 0.07 0.07 0.06 0.05 0.05
0.00 0.00 0.00 0.00 0.00 0.00 0.00 0.00 0.00 0.00 0.00 0.01 0.02 0.03 0.07 0.08 0.08 0.07 0.11 0.07 0.08 0.10
0.00 0.00 0.00 0.00 0.00 0.00 0.00 0.00 0.00 0.00 0.00 0.01 0.02 0.02 0.04 0.05 0.05 0.05 0.04 0.05 0.05 0.04
0.00 0.00 0.00 0.00 0.00 0.00 0.00 0.00 0.00 0.00 0.00 0.01 0.01 0.02 0.02 0.06 0.12 0.16 0.12 0.08 0.09 0.08
0.00 0.00 0.00 0.00 0.00 0.00 0.00 0.00 0.00 0.00 0.00 0.00 0.00 0.02 0.07 0.21 0.32 0.31 0.19 0.09 0.08 0.07
0.00 0.00 0.00 0.00 0.00 0.00 0.00 0.00 0.00 0.00 0.00 0.00 0.01 0.02 0.07 0.23 0.20 0.12 0.06 0.05 0.09 0.07
0.00 0.00 0.00 0.00 0.00 0.00 0.00 0.00 0.00 0.00 0.00 0.01 0.01 0.01 0.01 0.02 0.03 0.05 0.10 0.14 0.13 0.11
0.01 0.00 0.00 0.00 0.00 0.00 0.00 0.00 0.01 0.01 0.02 0.02 0.02 0.03 0.05 0.07 0.06 0.06 0.10 0.13 0.16 0.19
0.00 0.00 0.00 0.00 0.00 0.00 0.01 0.02 0.02 0.02 0.03 0.03 0.03 0.06 0.07 0.07 0.04 0.10 0.17 0.21 0.19 0.24
0.00 0.00 0.00 0.00 0.00 0.00 0.01 0.01 0.02 0.02 0.02 0.03 0.03 0.14 0.07 0.08 0.04 0.12 0.17 0.17 0.17 0.20
0.00 0.00 0.00 0.00 0.01 0.01 0.02 0.02 0.02 0.02 0.04 0.04 0.11 0.15 0.07 0.08 0.04 0.11 0.18 0.21 0.22 0.22
0.00 0.00 0.00 0.01 0.01 0.01 0.02 0.03 0.03 0.04 0.06 0.07 0.09 0.15 0.07 0.05 0.03 0.11 0.13 0.14 0.16 0.16
0.02 0.00 0.00 0.00 0.00 0.00 0.01 0.04 0.04 0.06 0.08 0.14 0.09 0.20 0.11 0.08 0.02 0.07 0.09 0.08 0.11 0.15
0.03 0.01 0.01 0.00 0.00 0.01 0.02 0.04 0.06 0.07 0.08 0.09 0.10 0.14 0.11 0.07 0.02 0.03 0.04 0.03 0.02 0.01

GFSNIL_prec_precacc12_102.txt.gz
Total_Precipitation_Accumulation
0.00 0.00 0.00 0.00 0.00 0.01 0.04 0.09 0.06 0.02 0.02 0.05 0.07 0.11 0.14 0.11 0.06 0.07 0.07 0.06 0.04 0.06
0.00 0.00 0.00 0.00 0.00 0.00 0.04 0.09 0.09 0.05 0.02 0.01 0.03 0.05 0.09 0.09 0.08 0.07 0.11 0.06 0.07 0.09
0.00 0.00 0.00 0.00 0.00 0.00 0.02 0.07 0.06 0.03 0.01 0.01 0.02 0.02 0.04 0.04 0.05 0.05 0.03 0.04 0.03 0.02
0.00 0.00 0.00 0.00 0.00 0.00 0.00 0.01 0.00 0.00 0.00 0.01 0.01 0.01 0.01 0.01 0.02 0.02 0.01 0.01 0.02 0.01
0.00 0.00 0.00 0.00 0.00 0.00 0.00 0.00 0.00 0.00 0.00 0.00 0.00 0.00 0.01 0.01 0.01 0.01 0.03 0.03 0.05 0.02
0.00 0.00 0.00 0.00 0.00 0.00 0.00 0.00 0.00 0.00 0.00 0.00 0.00 0.00 0.00 0.01 0.01 0.01 0.02 0.04 0.09 0.06
0.00 0.00 0.00 0.00 0.00 0.00 0.00 0.00 0.00 0.00 0.00 0.00 0.00 0.00 0.00 0.00 0.01 0.02 0.06 0.09 0.09 0.07
0.00 0.00 0.00 0.00 0.00 0.00 0.00 0.00 0.00 0.00 0.00 0.00 0.01 0.01 0.01 0.04 0.04 0.04 0.07 0.08 0.12 0.16
0.00 0.00 0.00 0.00 0.00 0.00 0.00 0.00 0.00 0.01 0.00 0.01 0.00 0.02 0.04 0.03 0.03 0.06 0.12 0.16 0.16 0.18
0.00 0.00 0.00 0.00 0.00 0.00 0.00 0.00 0.01 0.00 0.01 0.01 0.01 0.08 0.04 0.05 0.04 0.12 0.15 0.14 0.12 0.12
0.01 0.00 0.00 0.00 0.00 0.00 0.00 0.01 0.01 0.01 0.02 0.04 0.08 0.12 0.06 0.07 0.03 0.11 0.16 0.15 0.15 0.16
0.04 0.03 0.01 0.00 0.00 0.00 0.00 0.01 0.03 0.03 0.06 0.07 0.08 0.14 0.08 0.06 0.03 0.12 0.14 0.15 0.19 0.20
0.10 0.05 0.02 0.01 0.00 0.00 0.01 0.03 0.04 0.07 0.09 0.14 0.09 0.18 0.11 0.08 0.02 0.09 0.15 0.18 0.22 0.26
0.13 0.07 0.05 0.02 0.01 0.01 0.02 0.06 0.09 0.10 0.12 0.13 0.13 0.18 0.16 0.11 0.03 0.06 0.12 0.12 0.12 0.12

GFSNIL_prec_precacc12_105.txt.gz
Total_Precipitation_Accumulation
0.00 0.00 0.00 0.00 0.00 0.02 0.09 0.16 0.20 0.17 0.16 0.20 0.23 0.26 0.25 0.22 0.14 0.05 0.03 0.04 0.03 0.05
0.00 0.00 0.00 0.00 0.00 0.01 0.06 0.15 0.23 0.23 0.16 0.17 0.21 0.22 0.26 0.24 0.27 0.16 0.11 0.04 0.05 0.05
0.00 0.00 0.00 0.00 0.00 0.00 0.03 0.12 0.13 0.12 0.14 0.15 0.21 0.17 0.19 0.19 0.17 0.13 0.06 0.03 0.02 0.01
0.00 0.00 0.00 0.00 0.00 0.00 0.01 0.05 0.09 0.08 0.07 0.06 0.05 0.06 0.05 0.06 0.06 0.05 0.02 0.01 0.01 0.00
0.00 0.00 0.00 0.00 0.00 0.00 0.00 0.01 0.03 0.06 0.07 0.02 0.00 0.00 0.00 0.01 0.01 0.01 0.01 0.01 0.02 0.01
0.00 0.00 0.00 0.00 0.00 0.00 0.00 0.00 0.00 0.01 0.01 0.00 0.00 0.00 0.00 0.00 0.00 0.01 0.00 0.02 0.07 0.05
0.00 0.00 0.00 0.00 0.00 0.00 0.00 0.00 0.00 0.00 0.00 0.00 0.00 0.00 0.00 0.00 0.00 0.02 0.05 0.07 0.06 0.04
0.00 0.00 0.00 0.00 0.00 0.00 0.00 0.00 0.00 0.00 0.00 0.00 0.01 0.00 0.00 0.01 0.01 0.01 0.03 0.04 0.07 0.09
0.00 0.00 0.00 0.00 0.00 0.00 0.00 0.00 0.00 0.01 0.00 0.00 0.00 0.00 0.00 0.00 0.00 0.02 0.06 0.11 0.12 0.13
0.00 0.00 0.00 0.00 0.00 0.00 0.00 0.00 0.00 0.00 0.00 0.00 0.00 0.02 0.01 0.03 0.02 0.10 0.14 0.12 0.11 0.11
0.08 0.04 0.00 0.00 0.00 0.00 0.00 0.00 0.00 0.00 0.01 0.02 0.04 0.07 0.04 0.06 0.03 0.11 0.15 0.14 0.15 0.15
0.12 0.12 0.06 0.01 0.00 0.00 0.00 0.01 0.02 0.03 0.04 0.05 0.06 0.12 0.08 0.06 0.04 0.14 0.16 0.16 0.20 0.22
0.16 0.12 0.08 0.07 0.03 0.00 0.01 0.03 0.04 0.06 0.08 0.14 0.09 0.17 0.13 0.09 0.03 0.09 0.15 0.19 0.28 0.35
0.20 0.15 0.10 0.08 0.06 0.02 0.03 0.05 0.09 0.11 0.13 0.14 0.15 0.19 0.19 0.15 0.04 0.07 0.15 0.19 0.20 0.27

GFSNIL_prec_precacc12_111.txt.gz
Total_Precipitation_Accumulation
0.00 0.00 0.01 0.00 0.01 0.06 0.37 0.48 0.61 0.52 0.32 0.28 0.23 0.24 0.25 0.22 0.14 0.03 0.01 0.00 0.00 0.02
0.00 0.00 0.00 0.00 0.01 0.03 0.16 0.53 0.56 0.70 0.46 0.35 0.33 0.30 0.30 0.26 0.26 0.13 0.06 0.03 0.01 0.01
0.00 0.00 0.00 0.01 0.01 0.02 0.09 0.33 0.37 0.44 0.49 0.43 0.42 0.34 0.33 0.28 0.23 0.22 0.13 0.06 0.04 0.01
0.00 0.00 0.00 0.00 0.01 0.01 0.04 0.16 0.33 0.22 0.31 0.40 0.39 0.32 0.26 0.24 0.21 0.18 0.17 0.12 0.06 0.03
0.00 0.00 0.00 0.00 0.01 0.01 0.02 0.06 0.19 0.37 0.31 0.31 0.36 0.28 0.22 0.16 0.16 0.14 0.13 0.10 0.09 0.05
0.00 0.00 0.00 0.00 0.00 0.01 0.01 0.02 0.02 0.11 0.23 0.24 0.25 0.21 0.13 0.14 0.14 0.11 0.10 0.08 0.08 0.04
0.00 0.00 0.00 0.00 0.00 0.00 0.01 0.00 0.00 0.01 0.02 0.07 0.13 0.16 0.17 0.10 0.07 0.08 0.07 0.06 0.08 0.07
0.00 0.00 0.00 0.00 0.00 0.00 0.00 0.00 0.01 0.01 0.01 0.01 0.03 0.07 0.12 0.10 0.06 0.07 0.11 0.07 0.04 0.04
0.00 0.00 0.00 0.00 0.00 0.00 0.00 0.00 0.00 0.00 0.00 0.00 0.00 0.08 0.10 0.10 0.09 0.08 0.05 0.05 0.02 0.01
0.01 0.00 0.00 0.00 0.00 0.00 0.00 0.00 0.00 0.00 0.00 0.00 0.00 0.02 0.04 0.08 0.05 0.08 0.07 0.02 0.01 0.01
0.09 0.04 0.00 0.00 0.00 0.00 0.00 0.00 0.00 0.00 0.00 0.01 0.00 0.02 0.02 0.02 0.01 0.02 0.04 0.05 0.06 0.07
0.15 0.14 0.08 0.02 0.00 0.00 0.00 0.00 0.00 0.01 0.01 0.02 0.01 0.04 0.03 0.03 0.02 0.06 0.10 0.11 0.16 0.19
0.18 0.15 0.11 0.08 0.04 0.00 0.00 0.00 0.01 0.02 0.03 0.07 0.04 0.11 0.10 0.08 0.04 0.10 0.17 0.21 0.34 0.45
0.17 0.15 0.15 0.10 0.07 0.03 0.01 0.02 0.04 0.05 0.07 0.10 0.12 0.16 0.17 0.14 0.06 0.09 0.17 0.23 0.27 0.42

GFSNIL_prec_precacc12_114.txt.gz
Total_Precipitation_Accumulation
0.00 0.01 0.01 0.01 0.01 0.06 0.34 0.42 0.64 0.68 0.55 0.48 0.37 0.34 0.37 0.29 0.22 0.04 0.01 0.00 0.00 0.00
0.00 0.00 0.01 0.01 0.01 0.02 0.12 0.45 0.56 0.83 0.71 0.49 0.50 0.42 0.41 0.39 0.40 0.20 0.06 0.03 0.01 0.01
0.00 0.00 0.01 0.01 0.01 0.02 0.08 0.29 0.38 0.54 0.74 0.58 0.49 0.42 0.39 0.33 0.26 0.24 0.13 0.06 0.04 0.01
0.00 0.00 0.00 0.01 0.01 0.01 0.05 0.18 0.42 0.28 0.44 0.55 0.43 0.35 0.29 0.25 0.21 0.18 0.17 0.12 0.06 0.02
0.00 0.00 0.00 0.00 0.01 0.01 0.03 0.09 0.26 0.44 0.37 0.42 0.43 0.35 0.26 0.18 0.16 0.14 0.13 0.10 0.08 0.05
0.00 0.00 0.00 0.00 0.00 0.01 0.01 0.04 0.08 0.24 0.35 0.37 0.32 0.29 0.17 0.18 0.15 0.11 0.10 0.08 0.07 0.04
0.00 0.00 0.00 0.00 0.00 0.00 0.01 0.01 0.04 0.07 0.11 0.20 0.24 0.24 0.22 0.13 0.10 0.08 0.08 0.07 0.08 0.08
0.00 0.00 0.00 0.00 0.00 0.00 0.00 0.00 0.01 0.01 0.03 0.04 0.12 0.17 0.20 0.19 0.11 0.08 0.11 0.09 0.06 0.07
0.00 0.00 0.00 0.00 0.00 0.00 0.00 0.00 0.00 0.00 0.01 0.01 0.01 0.15 0.14 0.17 0.20 0.14 0.08 0.07 0.06 0.04
0.01 0.00 0.00 0.00 0.00 0.00 0.00 0.00 0.00 0.00 0.00 0.00 0.00 0.02 0.06 0.13 0.12 0.16 0.16 0.12 0.07 0.04
0.09 0.05 0.00 0.00 0.00 0.00 0.00 0.00 0.00 0.00 0.00 0.00 0.00 0.00 0.01 0.05 0.03 0.06 0.08 0.11 0.12 0.10
0.12 0.12 0.08 0.02 0.00 0.00 0.00 0.00 0.00 0.00 0.00 0.00 0.00 0.02 0.02 0.03 0.01 0.04 0.06 0.06 0.08 0.10
0.10 0.11 0.09 0.08 0.04 0.01 0.00 0.00 0.00 0.01 0.02 0.05 0.03 0.07 0.07 0.06 0.03 0.07 0.09 0.10 0.21 0.34
0.07 0.09 0.11 0.10 0.09 0.04 0.01 0.01 0.01 0.02 0.03 0.05 0.08 0.10 0.14 0.12 0.04 0.05 0.09 0.13 0.17 0.32

GFSNIL_prec_precacc12_117.txt.gz
Total_Precipitation_Accumulation
0.00 0.01 0.01 0.01 0.01 0.05 0.30 0.34 0.51 0.54 0.49 0.52 0.34 0.32 0.43 0.37 0.25 0.12 0.07 0.02 0.03 0.00
0.00 0.00 0.01 0.01 0.01 0.03 0.11 0.39 0.43 0.67 0.62 0.46 0.51 0.43 0.44 0.47 0.41 0.29 0.13 0.07 0.05 0.03
0.00 0.00 0.01 0.01 0.01 0.02 0.07 0.23 0.31 0.46 0.65 0.54 0.42 0.49 0.47 0.48 0.42 0.43 0.28 0.11 0.07 0.04
0.00 0.00 0.00 0.02 0.02 0.02 0.04 0.15 0.33 0.21 0.38 0.56 0.47 0.47 0.43 0.40 0.44 0.43 0.41 0.22 0.09 0.04
0.00 0.00 0.01 0.01 0.01 0.01 0.03 0.08 0.23 0.38 0.31 0.46 0.49 0.47 0.41 0.35 0.31 0.31 0.33 0.21 0.13 0.06
0.00 0.00 0.01 0.01 0.01 0.01 0.01 0.04 0.08 0.24 0.35 0.40 0.35 0.34 0.29 0.35 0.27 0.19 0.17 0.14 0.09 0.05
0.01 0.00 0.00 0.01 0.01 0.01 0.01 0.01 0.04 0.08 0.13 0.24 0.33 0.29 0.28 0.20 0.16 0.10 0.08 0.07 0.08 0.08
0.01 0.01 0.00 0.01 0.01 0.01 0.01 0.01 0.01 0.02 0.05 0.08 0.18 0.22 0.23 0.20 0.12 0.10 0.12 0.09 0.06 0.07
0.01 0.01 0.01 0.01 0.01 0.01 0.01 0.01 0.01 0.01 0.01 0.01 0.03 0.23 0.20 0.20 0.21 0.15 0.10 0.08 0.06 0.04
0.01 0.00 0.00 0.01 0.01 0.01 0.01 0.01 0.01 0.01 0.00 0.00 0.00 0.03 0.07 0.16 0.14 0.19 0.19 0.12 0.06 0.04
0.05 0.02 0.00 0.00 0.01 0.01 0.01 0.01 0.01 0.01 0.01 0.00 0.00 0.00 0.01 0.06 0.03 0.06 0.08 0.10 0.13 0.11
0.06 0.05 0.05 0.02 0.00 0.00 0.00 0.01 0.01 0.01 0.01 0.01 0.00 0.01 0.01 0.03 0.01 0.01 0.04 0.04 0.07 0.09
0.12 0.06 0.05 0.04 0.03 0.01 0.00 0.00 0.00 0.01 0.02 0.04 0.02 0.06 0.06 0.05 0.02 0.05 0.08 0.08 0.15 0.26
0.08 0.04 0.08 0.07 0.06 0.05 0.04 0.02 0.01 0.02 0.02 0.03 0.05 0.08 0.13 0.12 0.04 0.04 0.05 0.06 0.08 0.18

GFSNIL_prec_precacc12_120.txt.gz
Total_Precipitation_Accumulation
0.00 0.01 0.01 0.00 0.01 0.02 0.09 0.18 0.34 0.40 0.39 0.45 0.30 0.30 0.45 0.44 0.36 0.28 0.18 0.09 0.08 0.04
0.01 0.01 0.01 0.01 0.01 0.01 0.05 0.22 0.29 0.50 0.47 0.33 0.40 0.35 0.43 0.54 0.50 0.48 0.33 0.18 0.15 0.10
0.01 0.01 0.01 0.01 0.01 0.01 0.04 0.16 0.25 0.33 0.49 0.38 0.31 0.39 0.44 0.57 0.55 0.56 0.42 0.24 0.22 0.16
0.00 0.00 0.00 0.02 0.02 0.01 0.03 0.10 0.21 0.12 0.27 0.38 0.31 0.32 0.36 0.44 0.54 0.57 0.55 0.35 0.24 0.18
0.01 0.01 0.01 0.01 0.02 0.01 0.03 0.07 0.18 0.27 0.21 0.32 0.33 0.41 0.34 0.40 0.41 0.49 0.54 0.43 0.28 0.18
0.01 0.00 0.01 0.01 0.02 0.01 0.01 0.03 0.08 0.22 0.28 0.29 0.27 0.33 0.31 0.41 0.41 0.44 0.44 0.37 0.30 0.17
0.02 0.01 0.01 0.02 0.01 0.01 0.01 0.01 0.03 0.08 0.12 0.21 0.27 0.29 0.29 0.26 0.33 0.35 0.36 0.39 0.35 0.24
0.04 0.03 0.01 0.02 0.02 0.01 0.01 0.01 0.01 0.01 0.04 0.08 0.18 0.21 0.24 0.23 0.19 0.24 0.28 0.26 0.27 0.26
0.02 0.02 0.02 0.02 0.02 0.02 0.01 0.01 0.01 0.01 0.01 0.01 0.03 0.24 0.21 0.21 0.23 0.16 0.13 0.11 0.09 0.09
0.02 0.01 0.01 0.03 0.03 0.02 0.02 0.02 0.02 0.01 0.00 0.00 0.00 0.04 0.09 0.19 0.15 0.19 0.19 0.13 0.08 0.05
0.06 0.02 0.01 0.01 0.02 0.02 0.02 0.03 0.02 0.02 0.01 0.00 0.00 0.02 0.03 0.10 0.04 0.08 0.09 0.12 0.13 0.13
0.10 0.08 0.06 0.03 0.01 0.02 0.02 0.02 0.02 0.02 0.01 0.01 0.00 0.02 0.03 0.06 0.01 0.03 0.07 0.07 0.09 0.10
0.33 0.17 0.10 0.06 0.05 0.03 0.01 0.02 0.01 0.00 0.01 0.04 0.02 0.06 0.06 0.06 0.02 0.06 0.08 0.08 0.12 0.27
0.40 0.32 0.19 0.12 0.08 0.08 0.07 0.03 0.02 0.01 0.01 0.02 0.04 0.06 0.11 0.10 0.03 0.03 0.04 0.06 0.05 0.12

GFSNIL_prec_precacc12_123.txt.gz
Total_Precipitation_Accumulation
0.01 0.01 0.01 0.01 0.01 0.01 0.01 0.02 0.11 0.21 0.32 0.43 0.30 0.31 0.46 0.45 0.37 0.30 0.22 0.16 0.12 0.07
0.01 0.01 0.01 0.01 0.01 0.01 0.01 0.02 0.10 0.20 0.33 0.28 0.38 0.35 0.43 0.56 0.54 0.53 0.44 0.28 0.22 0.15
0.01 0.01 0.01 0.01 0.01 0.01 0.00 0.02 0.07 0.14 0.30 0.27 0.21 0.34 0.41 0.54 0.59 0.70 0.61 0.48 0.43 0.31
0.01 0.01 0.01 0.02 0.02 0.01 0.01 0.03 0.10 0.06 0.16 0.22 0.13 0.23 0.31 0.40 0.54 0.65 0.76 0.62 0.57 0.43
0.03 0.02 0.01 0.01 0.02 0.01 0.02 0.03 0.07 0.08 0.07 0.17 0.13 0.24 0.30 0.40 0.44 0.59 0.71 0.67 0.51 0.49
0.03 0.02 0.02 0.02 0.02 0.01 0.01 0.02 0.06 0.14 0.13 0.16 0.12 0.17 0.23 0.39 0.43 0.54 0.65 0.63 0.53 0.46
0.05 0.03 0.02 0.04 0.02 0.01 0.00 0.00 0.03 0.07 0.10 0.17 0.21 0.16 0.16 0.18 0.31 0.38 0.48 0.51 0.50 0.47
0.07 0.07 0.04 0.04 0.04 0.02 0.01 0.00 0.00 0.01 0.03 0.07 0.15 0.16 0.14 0.15 0.16 0.26 0.34 0.43 0.51 0.46
0.03 0.04 0.06 0.05 0.05 0.03 0.01 0.01 0.01 0.01 0.00 0.01 0.02 0.17 0.11 0.12 0.14 0.12 0.21 0.36 0.36 0.32
0.03 0.04 0.02 0.03 0.06 0.05 0.02 0.02 0.02 0.01 0.00 0.00 0.00 0.04 0.06 0.12 0.10 0.13 0.16 0.22 0.22 0.21
0.09 0.04 0.02 0.01 0.04 0.08 0.05 0.04 0.02 0.02 0.01 0.01 0.01 0.03 0.04 0.11 0.04 0.09 0.10 0.12 0.15 0.16
0.11 0.10 0.08 0.04 0.02 0.06 0.07 0.06 0.04 0.02 0.01 0.01 0.01 0.03 0.07 0.10 0.02 0.05 0.08 0.08 0.08 0.12
0.36 0.22 0.13 0.08 0.05 0.04 0.05 0.05 0.04 0.01 0.01 0.03 0.01 0.03 0.06 0.09 0.04 0.09 0.08 0.09 0.10 0.27
0.41 0.38 0.32 0.23 0.13 0.09 0.08 0.05 0.03 0.02 0.02 0.04 0.06 0.05 0.11 0.11 0.03 0.03 0.07 0.09 0.10 0.14

GFSNIL_prec_precacc12_126.txt.gz
Total_Precipitation_Accumulation
0.04 0.02 0.01 0.00 0.00 0.01 0.01 0.01 0.01 0.02 0.09 0.20 0.16 0.18 0.30 0.37 0.29 0.30 0.24 0.17 0.15 0.11
0.07 0.03 0.02 0.01 0.01 0.01 0.00 0.01 0.01 0.02 0.06 0.14 0.21 0.21 0.31 0.43 0.41 0.47 0.45 0.29 0.26 0.18
0.05 0.04 0.02 0.02 0.01 0.01 0.01 0.00 0.00 0.01 0.06 0.12 0.15 0.26 0.35 0.50 0.58 0.71 0.65 0.52 0.49 0.43
0.02 0.03 0.02 0.01 0.02 0.01 0.01 0.00 0.00 0.00 0.02 0.07 0.10 0.21 0.31 0.42 0.56 0.67 0.79 0.69 0.66 0.57
0.04 0.03 0.06 0.05 0.03 0.01 0.01 0.01 0.01 0.01 0.01 0.06 0.07 0.18 0.27 0.41 0.46 0.60 0.71 0.72 0.67 0.63
0.04 0.06 0.05 0.05 0.04 0.03 0.01 0.00 0.00 0.01 0.01 0.03 0.04 0.10 0.19 0.34 0.42 0.55 0.69 0.79 0.79 0.76
0.06 0.08 0.11 0.08 0.04 0.04 0.01 0.00 0.00 0.01 0.02 0.04 0.10 0.08 0.11 0.15 0.28 0.39 0.51 0.64 0.76 0.82
0.11 0.11 0.09 0.09 0.05 0.02 0.01 0.00 0.00 0.01 0.02 0.04 0.07 0.06 0.06 0.06 0.12 0.25 0.35 0.48 0.60 0.62
0.04 0.08 0.15 0.11 0.08 0.04 0.01 0.01 0.01 0.01 0.00 0.01 0.02 0.11 0.08 0.05 0.04 0.06 0.19 0.41 0.45 0.49
0.03 0.04 0.04 0.10 0.11 0.08 0.04 0.02 0.02 0.01 0.00 0.00 0.00 0.03 0.04 0.07 0.03 0.04 0.06 0.21 0.35 0.33
0.08 0.04 0.03 0.02 0.07 0.10 0.09 0.04 0.02 0.02 0.01 0.01 0.01 0.03 0.03 0.07 0.02 0.03 0.05 0.09 0.22 0.29
0.10 0.09 0.09 0.06 0.04 0.07 0.12 0.14 0.05 0.03 0.01 0.01 0.01 0.03 0.07 0.10 0.02 0.06 0.09 0.10 0.11 0.14
0.35 0.22 0.12 0.09 0.08 0.04 0.06 0.10 0.06 0.02 0.02 0.03 0.01 0.04 0.08 0.13 0.04 0.11 0.11 0.11 0.13 0.30
0.41 0.38 0.32 0.22 0.13 0.11 0.09 0.08 0.13 0.06 0.02 0.04 0.05 0.05 0.09 0.12 0.05 0.05 0.08 0.10 0.11 0.13

GFSNIL_prec_precacc12_129.txt.gz
Total_Precipitation_Accumulation
0.07 0.09 0.04 0.01 0.00 0.00 0.00 0.01 0.01 0.02 0.01 0.02 0.04 0.05 0.09 0.13 0.17 0.21 0.19 0.16 0.14 0.12
0.13 0.07 0.02 0.02 0.02 0.00 0.00 0.01 0.01 0.01 0.01 0.01 0.02 0.04 0.10 0.18 0.22 0.31 0.37 0.25 0.23 0.17
0.10 0.10 0.06 0.04 0.01 0.01 0.01 0.00 0.01 0.01 0.01 0.02 0.02 0.04 0.13 0.21 0.30 0.43 0.48 0.48 0.48 0.43
0.06 0.12 0.07 0.05 0.03 0.02 0.01 0.01 0.01 0.01 0.01 0.00 0.01 0.05 0.13 0.23 0.30 0.39 0.55 0.61 0.65 0.57
0.05 0.05 0.10 0.10 0.07 0.02 0.02 0.02 0.01 0.01 0.00 0.00 0.01 0.06 0.12 0.25 0.32 0.44 0.53 0.61 0.64 0.65
0.04 0.07 0.09 0.09 0.12 0.07 0.03 0.03 0.01 0.00 0.00 0.00 0.01 0.05 0.09 0.20 0.32 0.49 0.64 0.74 0.80 0.84
0.06 0.08 0.14 0.11 0.07 0.08 0.06 0.03 0.02 0.01 0.00 0.00 0.01 0.03 0.05 0.09 0.23 0.38 0.52 0.65 0.77 0.85
0.11 0.11 0.09 0.17 0.17 0.08 0.04 0.03 0.01 0.01 0.00 0.00 0.00 0.00 0.03 0.05 0.11 0.24 0.35 0.48 0.60 0.63
0.04 0.11 0.16 0.14 0.19 0.20 0.13 0.02 0.00 0.00 0.01 0.00 0.00 0.03 0.02 0.02 0.03 0.05 0.18 0.40 0.46 0.52
0.03 0.05 0.06 0.12 0.18 0.15 0.06 0.03 0.01 0.00 0.00 0.00 0.00 0.02 0.03 0.04 0.02 0.00 0.04 0.21 0.35 0.36
0.06 0.04 0.04 0.03 0.08 0.18 0.22 0.12 0.03 0.01 0.00 0.00 0.00 0.03 0.03 0.06 0.01 0.03 0.04 0.08 0.19 0.28
0.08 0.06 0.06 0.05 0.05 0.08 0.13 0.16 0.09 0.03 0.01 0.00 0.00 0.03 0.07 0.09 0.02 0.06 0.08 0.09 0.10 0.12
0.28 0.19 0.11 0.07 0.07 0.07 0.10 0.13 0.15 0.15 0.09 0.04 0.01 0.04 0.08 0.12 0.05 0.11 0.11 0.11 0.12 0.28
0.34 0.35 0.29 0.20 0.11 0.07 0.08 0.10 0.17 0.14 0.13 0.09 0.07 0.04 0.06 0.08 0.04 0.05 0.09 0.12 0.13 0.14

GFSNIL_prec_precacc12_132.txt.gz
Total_Precipitation_Accumulation
0.07 0.09 0.04 0.02 0.00 0.00 0.00 0.00 0.01 0.01 0.02 0.02 0.04 0.05 0.05 0.05 0.05 0.06 0.08 0.11 0.10 0.10
0.18 0.19 0.09 0.06 0.07 0.02 0.00 0.00 0.01 0.02 0.02 0.02 0.03 0.03 0.04 0.06 0.08 0.09 0.15 0.14 0.14 0.13
0.21 0.26 0.18 0.15 0.09 0.04 0.01 0.00 0.02 0.03 0.03 0.03 0.04 0.03 0.04 0.05 0.10 0.19 0.27 0.31 0.31 0.31
0.20 0.29 0.25 0.19 0.15 0.12 0.08 0.04 0.04 0.04 0.02 0.01 0.03 0.04 0.05 0.05 0.07 0.13 0.29 0.40 0.47 0.43
0.15 0.17 0.25 0.28 0.24 0.16 0.14 0.14 0.14 0.08 0.01 0.01 0.01 0.02 0.03 0.06 0.11 0.16 0.24 0.34 0.46 0.52
0.17 0.19 0.21 0.21 0.26 0.18 0.13 0.10 0.09 0.05 0.01 0.00 0.00 0.01 0.01 0.04 0.13 0.22 0.35 0.50 0.59 0.72
0.12 0.14 0.25 0.23 0.16 0.14 0.11 0.13 0.14 0.10 0.05 0.01 0.00 0.00 0.00 0.02 0.06 0.13 0.25 0.34 0.52 0.70
0.09 0.10 0.08 0.16 0.17 0.09 0.04 0.06 0.10 0.12 0.10 0.04 0.01 0.00 0.00 0.01 0.03 0.10 0.19 0.31 0.40 0.45
0.03 0.10 0.16 0.12 0.17 0.20 0.18 0.10 0.06 0.07 0.07 0.03 0.02 0.02 0.01 0.01 0.01 0.04 0.15 0.37 0.43 0.47
0.03 0.05 0.07 0.13 0.16 0.18 0.14 0.34 0.32 0.12 0.03 0.01 0.00 0.02 0.01 0.02 0.01 0.00 0.04 0.21 0.34 0.35
0.03 0.03 0.03 0.03 0.07 0.17 0.25 0.19 0.12 0.12 0.02 0.00 0.00 0.02 0.02 0.03 0.00 0.01 0.02 0.07 0.18 0.25
0.02 0.02 0.04 0.03 0.04 0.07 0.12 0.21 0.23 0.14 0.04 0.01 0.00 0.02 0.05 0.06 0.01 0.03 0.04 0.05 0.05 0.08
0.05 0.06 0.04 0.04 0.04 0.05 0.09 0.13 0.15 0.16 0.13 0.10 0.03 0.04 0.07 0.11 0.04 0.08 0.08 0.08 0.08 0.18
0.00 0.06 0.14 0.11 0.07 0.04 0.04 0.09 0.19 0.18 0.18 0.19 0.18 0.12 0.08 0.09 0.03 0.04 0.07 0.10 0.11 0.10

GFSNIL_prec_precacc12_138.txt.gz
Total_Precipitation_Accumulation
0.03 0.07 0.04 0.02 0.00 0.00 0.00 0.00 0.00 0.01 0.02 0.02 0.03 0.03 0.04 0.04 0.03 0.03 0.04 0.03 0.04 0.05
0.13 0.16 0.08 0.05 0.07 0.03 0.01 0.01 0.01 0.03 0.04 0.03 0.04 0.04 0.06 0.06 0.06 0.05 0.04 0.04 0.04 0.06
0.20 0.24 0.17 0.18 0.13 0.09 0.08 0.03 0.07 0.10 0.05 0.07 0.05 0.08 0.09 0.06 0.06 0.05 0.06 0.05 0.05 0.05
0.49 0.55 0.36 0.33 0.29 0.28 0.27 0.24 0.20 0.20 0.17 0.19 0.24 0.21 0.15 0.10 0.06 0.05 0.06 0.06 0.05 0.04
0.35 0.40 0.41 0.41 0.42 0.39 0.37 0.37 0.45 0.40 0.26 0.23 0.24 0.27 0.23 0.16 0.11 0.06 0.05 0.04 0.05 0.05
0.41 0.32 0.33 0.31 0.37 0.33 0.34 0.33 0.32 0.49 0.52 0.33 0.23 0.19 0.14 0.14 0.11 0.08 0.05 0.05 0.07 0.11
0.46 0.43 0.40 0.37 0.31 0.31 0.31 0.31 0.33 0.31 0.31 0.32 0.24 0.18 0.15 0.13 0.09 0.05 0.04 0.03 0.04 0.06
0.34 0.32 0.31 0.40 0.39 0.29 0.28 0.25 0.30 0.35 0.35 0.28 0.19 0.16 0.16 0.16 0.07 0.04 0.02 0.01 0.01 0.02
0.32 0.24 0.24 0.26 0.38 0.34 0.26 0.20 0.23 0.31 0.31 0.36 0.31 0.29 0.26 0.22 0.12 0.04 0.01 0.00 0.00 0.03
0.28 0.32 0.20 0.24 0.24 0.29 0.29 0.44 0.41 0.31 0.33 0.41 0.37 0.44 0.61 0.43 0.14 0.08 0.06 0.01 0.01 0.03
0.03 0.06 0.06 0.08 0.12 0.15 0.28 0.25 0.20 0.24 0.19 0.18 0.25 0.28 0.44 0.91 0.50 0.09 0.06 0.03 0.01 0.03
0.00 0.01 0.02 0.01 0.05 0.08 0.07 0.17 0.25 0.21 0.11 0.08 0.05 0.10 0.11 0.16 0.09 0.02 0.00 0.01 0.01 0.01
0.00 0.00 0.00 0.00 0.01 0.05 0.06 0.10 0.15 0.18 0.27 0.25 0.11 0.08 0.04 0.05 0.03 0.01 0.01 0.01 0.02 0.04
0.00 0.00 0.00 0.00 0.00 0.00 0.01 0.04 0.08 0.13 0.17 0.24 0.28 0.22 0.15 0.10 0.04 0.02 0.03 0.03 0.03 0.03

GFSNIL_prec_precacc12_141.txt.gz
Total_Precipitation_Accumulation
0.00 0.01 0.05 0.11 0.08 0.04 0.07 0.05 0.00 0.01 0.01 0.02 0.02 0.03 0.03 0.04 0.02 0.01 0.02 0.02 0.02 0.03
0.07 0.13 0.10 0.10 0.16 0.10 0.07 0.06 0.02 0.04 0.04 0.03 0.03 0.03 0.06 0.05 0.04 0.03 0.04 0.05 0.06 0.05
0.15 0.19 0.14 0.16 0.35 0.31 0.20 0.14 0.11 0.10 0.05 0.07 0.06 0.08 0.08 0.05 0.05 0.04 0.05 0.06 0.06 0.07
0.62 0.71 0.48 0.40 0.37 0.72 0.47 0.36 0.23 0.21 0.17 0.20 0.27 0.26 0.21 0.13 0.07 0.05 0.05 0.03 0.04 0.03
0.45 0.64 0.58 0.66 0.66 0.65 0.59 0.48 0.47 0.40 0.26 0.24 0.27 0.32 0.28 0.26 0.21 0.15 0.07 0.05 0.04 0.02
0.50 0.51 0.43 0.39 0.49 0.45 0.46 0.44 0.38 0.53 0.54 0.34 0.26 0.21 0.15 0.17 0.15 0.13 0.07 0.06 0.07 0.05
0.50 0.50 0.48 0.46 0.39 0.39 0.38 0.39 0.42 0.36 0.35 0.37 0.28 0.21 0.17 0.15 0.11 0.07 0.07 0.08 0.08 0.10
0.36 0.36 0.33 0.35 0.35 0.32 0.35 0.34 0.45 0.47 0.43 0.37 0.27 0.19 0.18 0.22 0.22 0.12 0.07 0.07 0.07 0.06
0.32 0.21 0.23 0.24 0.30 0.29 0.32 0.31 0.29 0.37 0.34 0.39 0.35 0.32 0.27 0.25 0.30 0.28 0.18 0.12 0.08 0.05
0.29 0.38 0.26 0.26 0.19 0.27 0.40 0.66 0.58 0.38 0.38 0.43 0.39 0.46 0.64 0.50 0.26 0.26 0.26 0.19 0.15 0.14
0.18 0.16 0.22 0.23 0.25 0.16 0.28 0.39 0.46 0.51 0.32 0.24 0.31 0.39 0.49 1.09 0.96 0.40 0.34 0.50 0.39 0.35
0.05 0.08 0.19 0.10 0.12 0.16 0.17 0.27 0.39 0.37 0.23 0.20 0.13 0.18 0.28 0.37 0.65 0.91 0.65 0.41 0.39 0.19
0.00 0.00 0.01 0.03 0.09 0.14 0.13 0.14 0.16 0.21 0.32 0.31 0.22 0.26 0.21 0.30 0.31 0.22 0.31 0.25 0.09 0.03
0.00 0.00 0.00 0.00 0.01 0.06 0.10 0.14 0.16 0.18 0.10 0.22 0.29 0.29 0.23 0.19 0.22 0.15 0.15 0.13 0.05 0.02

GFSNIL_prec_precacc12_144.txt.gz
Total_Precipitation_Accumulation
0.00 0.01 0.05 0.12 0.10 0.07 0.18 0.64 0.89 0.54 0.16 0.05 0.03 0.02 0.02 0.02 0.01 0.00 0.01 0.01 0.01 0.01
0.00 0.01 0.03 0.10 0.22 0.14 0.22 0.27 1.03 1.41 0.67 0.15 0.12 0.05 0.04 0.03 0.03 0.02 0.03 0.04 0.04 0.03
0.04 0.02 0.02 0.07 0.46 0.69 0.43 0.25 0.39 0.81 0.74 0.38 0.14 0.15 0.08 0.04 0.04 0.03 0.03 0.05 0.05 0.06
0.51 0.56 0.39 0.38 0.50 1.05 0.77 0.52 0.27 0.30 0.31 0.36 0.30 0.29 0.26 0.12 0.06 0.04 0.04 0.03 0.02 0.03
0.43 0.61 0.64 0.75 0.85 1.37 1.44 0.83 0.65 0.46 0.30 0.29 0.31 0.37 0.38 0.30 0.22 0.15 0.07 0.04 0.04 0.02
0.61 0.59 0.58 0.55 0.63 0.84 1.22 0.96 1.09 0.92 0.69 0.44 0.31 0.25 0.22 0.29 0.21 0.12 0.06 0.05 0.06 0.03
0.58 0.63 0.59 0.59 0.58 0.65 0.87 1.22 1.51 1.76 0.85 0.53 0.39 0.29 0.23 0.22 0.16 0.08 0.07 0.08 0.07 0.09
0.39 0.43 0.42 0.45 0.46 0.49 0.73 0.89 1.18 1.56 1.32 0.75 0.51 0.34 0.25 0.26 0.28 0.17 0.12 0.11 0.08 0.07
0.32 0.22 0.22 0.27 0.33 0.32 0.34 0.35 0.44 0.53 0.73 1.00 0.69 0.57 0.43 0.36 0.41 0.37 0.27 0.18 0.11 0.06
0.28 0.37 0.24 0.23 0.19 0.22 0.31 0.34 0.29 0.30 0.43 0.52 0.48 0.58 0.81 0.67 0.36 0.34 0.37 0.27 0.18 0.15
0.22 0.18 0.22 0.23 0.25 0.16 0.24 0.30 0.36 0.44 0.38 0.35 0.37 0.42 0.55 1.17 1.02 0.46 0.41 0.56 0.42 0.40
0.09 0.16 0.27 0.17 0.19 0.23 0.23 0.25 0.26 0.28 0.24 0.29 0.26 0.28 0.34 0.43 0.69 1.00 0.78 0.52 0.59 0.47
0.00 0.00 0.02 0.06 0.14 0.24 0.19 0.19 0.23 0.31 0.38 0.33 0.33 0.40 0.31 0.43 0.51 0.40 0.49 0.65 0.58 0.42
0.00 0.00 0.00 0.00 0.01 0.11 0.26 0.35 0.27 0.24 0.16 0.23 0.26 0.37 0.47 0.44 0.58 0.63 0.43 0.29 0.30 0.24

GFSNIL_prec_precacc12_147.txt.gz
Total_Precipitation_Accumulation
0.00 0.02 0.05 0.12 0.10 0.07 0.20 0.67 0.93 0.66 0.58 0.66 0.62 0.56 0.11 0.04 0.00 0.00 0.01 0.01 0.01 0.01
0.00 0.02 0.06 0.13 0.25 0.14 0.23 0.31 1.06 1.50 1.32 1.18 1.21 0.77 0.39 0.11 0.02 0.01 0.02 0.03 0.04 0.03
0.02 0.01 0.02 0.06 0.46 0.68 0.39 0.53 0.52 0.84 1.34 1.61 1.52 1.63 0.95 0.30 0.10 0.04 0.02 0.04 0.04 0.05
0.29 0.34 0.31 0.27 0.38 0.92 0.61 0.43 0.63 0.49 0.44 0.85 1.03 1.58 1.46 0.59 0.24 0.08 0.02 0.02 0.02 0.02
0.32 0.44 0.53 0.69 0.75 1.26 1.36 0.74 0.52 0.48 0.31 0.31 0.50 0.77 1.45 1.19 0.61 0.21 0.06 0.03 0.04 0.02
0.64 0.67 0.62 0.60 0.64 0.80 1.16 0.91 0.97 0.82 0.65 0.38 0.30 0.32 0.52 1.18 0.87 0.28 0.10 0.05 0.06 0.03
0.40 0.64 0.83 0.84 0.77 0.91 0.88 1.14 1.41 1.67 0.79 0.53 0.48 0.42 0.41 0.49 0.47 0.34 0.24 0.16 0.07 0.09
0.29 0.32 0.32 0.43 0.70 0.80 0.98 1.13 1.45 1.77 1.30 0.72 0.58 0.59 0.42 0.41 0.43 0.29 0.28 0.22 0.13 0.09
0.31 0.19 0.20 0.23 0.31 0.33 0.40 0.47 0.54 1.01 1.73 1.56 1.00 0.71 0.62 0.48 0.49 0.44 0.31 0.25 0.19 0.11
0.27 0.37 0.23 0.21 0.18 0.21 0.27 0.31 0.31 0.34 0.69 1.17 1.08 1.14 1.22 1.11 0.66 0.48 0.45 0.35 0.29 0.23
0.22 0.18 0.21 0.20 0.20 0.15 0.19 0.28 0.31 0.38 0.35 0.40 0.58 0.73 1.10 1.95 1.88 1.04 0.68 0.78 0.61 0.52
0.09 0.16 0.27 0.17 0.21 0.23 0.22 0.22 0.24 0.22 0.21 0.28 0.27 0.33 0.47 0.65 1.12 1.21 0.92 0.63 0.75 0.62
0.00 0.00 0.02 0.06 0.15 0.26 0.23 0.21 0.24 0.31 0.30 0.25 0.30 0.37 0.31 0.45 0.57 0.51 0.59 0.76 0.66 0.58
0.00 0.00 0.00 0.00 0.01 0.11 0.27 0.35 0.29 0.27 0.18 0.20 0.25 0.35 0.46 0.44 0.58 0.71 0.56 0.39 0.46 0.43

GFSNIL_prec_precacc12_153.txt.gz
Total_Precipitation_Accumulation
0.00 0.01 0.01 0.03 0.04 0.04 0.14 0.62 0.94 0.67 0.59 0.67 0.62 0.85 0.80 0.70 0.86 0.92 0.80 0.76 0.35 0.09
0.01 0.02 0.04 0.08 0.17 0.10 0.19 0.27 1.07 1.49 1.33 1.22 1.23 0.79 0.76 0.69 0.45 0.59 0.65 0.57 0.64 0.24
0.04 0.03 0.07 0.09 0.30 0.59 0.36 0.53 0.53 0.83 1.35 1.60 1.55 1.61 1.23 1.01 0.61 0.47 0.51 0.48 0.40 0.30
0.07 0.09 0.19 0.25 0.52 0.64 0.53 0.44 0.66 0.45 0.38 0.74 0.92 1.43 1.48 1.05 0.79 0.64 0.47 0.45 0.45 0.38
0.18 0.20 0.36 0.48 0.52 1.08 1.23 0.69 0.54 0.43 0.17 0.13 0.28 0.51 1.34 1.25 0.87 0.75 0.59 0.43 0.33 0.34
0.44 0.40 0.43 0.54 0.47 0.71 1.15 0.83 1.07 0.67 0.38 0.19 0.12 0.15 0.40 1.14 1.34 0.78 0.61 0.47 0.27 0.12
0.24 0.42 0.61 0.71 0.73 0.96 0.92 1.31 1.58 1.84 0.85 0.42 0.35 0.28 0.28 0.42 0.87 1.15 0.67 0.60 0.46 0.21
0.03 0.08 0.10 0.20 0.48 0.75 1.01 1.36 1.67 1.91 1.47 0.82 0.67 0.57 0.34 0.29 0.37 0.72 0.96 0.67 0.49 0.38
0.00 0.00 0.01 0.03 0.05 0.09 0.21 0.42 0.69 1.06 1.73 1.62 1.13 0.91 0.66 0.35 0.29 0.34 0.50 0.98 0.81 0.37
0.00 0.00 0.00 0.00 0.00 0.00 0.01 0.04 0.19 0.37 0.62 0.97 0.98 1.37 1.23 1.20 0.58 0.41 0.37 0.45 1.06 1.00
0.04 0.02 0.01 0.00 0.01 0.02 0.02 0.05 0.05 0.14 0.30 0.35 0.46 0.91 1.13 1.42 1.51 0.92 0.64 0.59 0.55 0.80
0.04 0.08 0.08 0.07 0.10 0.10 0.10 0.10 0.07 0.05 0.09 0.16 0.22 0.40 0.62 0.85 1.13 1.08 1.26 0.84 0.69 0.80
0.01 0.01 0.01 0.03 0.07 0.12 0.11 0.10 0.10 0.14 0.16 0.17 0.16 0.24 0.39 0.63 0.80 0.67 0.81 1.64 1.23 0.94
0.01 0.01 0.00 0.00 0.00 0.06 0.16 0.22 0.16 0.15 0.16 0.16 0.18 0.26 0.43 0.50 0.73 0.93 0.60 0.50 0.85 0.81